Weather History for Little Rock AFB, AR

Change the Weather History Date:

Tuesday, March 11, 2014

  Actual Average Record
Temperature  
Mean Temperature 60 °F -  
Max Temperature 76 °F 64 °F 85 °F (1967)
Min Temperature 44 °F 40 °F 19 °F (1969)
Degree Days  
Heating Degree Days 6    
Growing Degree Days 10 (Base 50)    
Moisture  
Dew Point 52 °F    
Average Humidity 71    
Maximum Humidity 87    
Minimum Humidity 49    
Precipitation  
Precipitation 0.00 in - - ()
Sea Level Pressure  
Sea Level Pressure 29.71 in    
Wind  
Wind Speed 4 mph (South)    
Max Wind Speed 16 mph    
Max Gust Speed 26 mph    
Visibility 10 miles    
Events      
Averages and records for this station are not official NWS values.
T = Trace of Precipitation, MM = Missing Value Source: NWS Daily Summary

Daily Weather History Graph

Daily Weather History Graph

Search for Another Location

Airport:

Trip Planner

Search our weather history database for the weather conditions in past years. The results will help you decide how hot, cold, wet, or windy it might be!

Date:

Astronomy

Mar. 11, 2014 Rise Set
Actual Time 7:24 AM CDT 7:12 PM CDT
Civil Twilight 6:59 AM CDT 7:38 PM CDT
Nautical Twilight 6:30 AM CDT 8:07 PM CDT
Astronomical Twilight 6:00 AM CDT 8:36 PM CDT
Moon 2:57 PM CDT (3/11) 4:10 AM CDT (3/11)
Length of Visible Light 12h 38m
Length of Day
11h 48m
Waxing Gibbous, 78% of the Moon is Illuminated
Mar 11
Waxing Gibbous
Mar 16
Full
Mar 23
Last Quarter
Mar 30
New
Apr 7
First Quarter

Hourly Weather History & Observations

Time (CDT) Temp. Dew Point Humidity Pressure Visibility Wind Dir Wind Speed Gust Speed Precip Events Conditions
12:58 AM 49.8 °F 41.7 °F 74% 29.86 in 10.0 mi East 1.2 mph - N/A   Clear
1:58 AM 47.3 °F 41.2 °F 79% 29.85 in 10.0 mi Calm Calm - N/A   Clear
2:58 AM 54.7 °F 43.7 °F 66% 29.83 in 10.0 mi Calm Calm - N/A   Clear
3:58 AM 45.9 °F 41.7 °F 85% 29.80 in 10.0 mi Calm Calm - N/A   Clear
4:58 AM 44.4 °F 40.8 °F 87% 29.79 in 10.0 mi Calm Calm - N/A   Clear
5:58 AM 51.3 °F 45.1 °F 80% 29.80 in 10.0 mi SSW 4.6 mph - N/A   Clear
6:58 AM 53.4 °F 48.0 °F 82% 29.78 in 10.0 mi South 9.2 mph - N/A   Clear
7:58 AM 52.2 °F 48.0 °F 86% 29.78 in 10.0 mi South 2.3 mph - N/A   Clear
8:58 AM 57.0 °F 51.1 °F 81% 29.78 in 10.0 mi South 5.8 mph - N/A   Clear
9:58 AM 60.8 °F 52.7 °F 75% 29.79 in 10.0 mi South 9.2 mph - N/A   Clear
10:58 AM 64.8 °F 54.5 °F 69% 29.77 in 10.0 mi South 6.9 mph - N/A   Clear
11:58 AM 67.8 °F 54.9 °F 63% 29.74 in 10.0 mi SSW 4.6 mph - N/A   Clear
12:58 PM 71.2 °F 55.2 °F 57% 29.70 in 10.0 mi SSW 8.1 mph - N/A   Clear
1:58 PM 73.6 °F 56.3 °F 55% 29.66 in 10.0 mi South 11.5 mph - N/A   Scattered Clouds
2:58 PM 75.2 °F 54.9 °F 49% 29.65 in 10.0 mi SSW 16.1 mph 26.5 mph N/A   Scattered Clouds
3:58 PM 74.3 °F 55.0 °F 51% 29.61 in 10.0 mi South 11.5 mph 17.3 mph N/A   Partly Cloudy
4:58 PM 73.6 °F 55.8 °F 54% 29.59 in 10.0 mi South 10.4 mph - N/A   Mostly Cloudy
5:58 PM 74.3 °F 56.3 °F 53% 29.57 in 10.0 mi SSE 10.4 mph - N/A   Clear
6:58 PM 71.6 °F 57.0 °F 60% 29.58 in 10.0 mi SE 5.8 mph - N/A   Partly Cloudy
7:58 PM 67.5 °F 59.0 °F 74% 29.59 in 10.0 mi SSE 6.9 mph - N/A   Clear
8:58 PM 65.8 °F 59.2 °F 79% 29.62 in 10.0 mi SSE 5.8 mph - N/A   Mostly Cloudy
9:58 PM 64.6 °F 57.9 °F 79% 29.62 in 10.0 mi South 4.6 mph - N/A   Partly Cloudy
10:58 PM 63.5 °F 57.0 °F 79% 29.61 in 10.0 mi South 10.4 mph - N/A   Clear
11:58 PM 62.4 °F 57.7 °F 85% 29.62 in 10.0 mi South 5.8 mph - N/A   Clear